STARLINK-11461 [DTC] (62421 NORAD) Tracking and Keplerian Element Data

This shows tracking and keplerian element data for the satellite.

Feedback or suggestion? Click here.




ElementValue
Catalog62421
NameSTARLINK-11461 [DTC]
Epoch Orbit606
Epoch Day34.83335648
Epoch Year2025
RAAN51.9612
Inclination42.9996
Eccentricity0.0001463
Argument of Perigee264.1453
Mean Anonmoly306.1995
Mean Motion15.74519291
Decay Rate-0.01131152
L11 62421U 24249N 25034.83335648 -.01131152 00000+0 -84376-2 0 9995
L22 62421 42.9996 51.9612 0001463 264.1453 306.1995 15.74519291 6068



Live tracking and technical data element details for STARLINK-11461 [DTC] (NORAD 62421). STARLINK-11461 [DTC] can be tracked NOW for your location showing map with azimuth and elevation plus other details from your city location.







IsCatalogInMostPopularTable: catalog: 62421, numindb: 30
Update: records affected: 1



GetName: 62421 STARLINK-11461 [DTC]

Hit Count: updated at: Sun, 18 May 2025 23:20:11 GMT